This demonstration page uses our WeatherBlox Daily Observations layout. Learn more.

Left ArrowRight Arrow

Hourly Observations for November 16, 2015

Temp ( °F °C ) Dew Point ( °F °C ) Humidity (%) Winds ( mph kmh ) Pressure ( in mb ) Visibility ( mi km ) Precip ( " mm )
12:53 am 00:53 Clear 40 4.4 31 -0.6 70 70 VRB 3 6 30.12 1020 10 16 0.00 0.00
1:53 am 01:53 Clear 37 2.8 31 -0.6 79 79 NNE 5 7 30.14 1021 10 16 0.00 0.00
2:53 am 02:53 Clear 36 2.2 31 -0.6 82 82 W 5 7 30.17 1022 10 16 0.00 0.00
3:53 am 03:53 Clear 39 3.9 32 0 76 76 NNW 7 11 30.19 1022 10 16 0.00 0.00
4:53 am 04:53 Clear 36 2.2 29 -1.7 76 76 WSW 5 7 30.20 1023 10 16 0.00 0.00
5:53 am 05:53 Clear 35 1.7 29 -1.7 78 78 N 6 9 30.22 1023 10 16 0.00 0.00
6:53 am 06:53 Clear 34 1.1 29 -1.7 82 82 WNW 6 9 30.24 1024 10 16 0.00 0.00
7:53 am 07:53 Sunny 36 2.2 30 -1.1 79 79 NNE 5 7 30.28 1025 10 16 0.00 0.00
8:53 am 08:53 Sunny 46 7.8 31 -0.6 56 56 WNW 5 7 30.31 1026 10 16 0.00 0.00
9:53 am 09:53 Sunny 50 10 30 -1.1 46 46 VRB 5 7 30.32 1027 8 13 0.00 0.00
10:01 am 10:01 Hazy 50 10 30 -1.1 46 46 NNW 6 9 30.33 1027 3 5 0.00 0.00
10:53 am 10:53 Sunny 53 11.7 30 -1.1 41 41 N 5 7 30.32 1027 10 16 0.00 0.00
11:53 am 11:53 Sunny 56 13.3 28 -2.2 34 34 N 9 15 30.31 1026 8 13 0.00 0.00
12:53 pm 12:53 Sunny 57 13.9 24 -4.4 28 28 Calm 30.30 1026 10 16 0.00 0.00
1:53 pm 13:53 Sunny 59 15 25 -3.9 27 27 Calm 30.29 1026 10 16 0.00 0.00
2:53 pm 14:53 Mostly Cloudy 59 15 25 -3.9 27 27 NE 5 7 30.28 1025 10 16 0.00 0.00
3:53 pm 15:53 Sunny 59 15 25 -3.9 27 27 NE 8 13 30.29 1026 10 16 0.00 0.00
4:53 pm 16:53 Hazy 53 11.7 29 -1.7 40 40 Calm 30.30 1026 5 8 0.00 0.00
5:00 pm 17:00 Hazy 52 11 30 -1 44 44 Calm 30.30 1026 2 3 0.00 0.00
5:09 pm 17:09 Hazy 52 11.1 30 -1.1 43 43 N 3 6 30.30 1026 1 2 0.00 0.00
5:13 pm 17:13 Hazy 51 10.6 30 -1.1 44 44 N 3 6 30.30 1026 2 3 0.00 0.00
5:21 pm 17:21 Hazy 50 10 31 -0.6 48 48 N 3 6 30.30 1026 1 2 0.00 0.00
5:31 pm 17:31 Hazy 51 10.6 30 -1.1 44 44 N 3 6 30.30 1026 1 1 0.00 0.00
5:39 pm 17:39 Hazy 49 9.4 30 -1.1 48 48 N 3 6 30.30 1026 2 2 0.00 0.00
5:53 pm 17:53 Hazy 47 8.3 32 0 56 56 Calm 30.31 1026 3 5 0.00 0.00
6:53 pm 18:53 Partly Cloudy 49 9.4 31 -0.6 50 50 NW 7 11 30.32 1027 10 16 0.00 0.00
7:53 pm 19:53 Clear 47 8.3 33 0.6 59 59 VRB 3 6 30.32 1027 8 13 0.00 0.00
8:53 pm 20:53 Mostly Cloudy 44 6.7 34 1.1 68 68 WNW 3 6 30.33 1027 10 16 0.00 0.00
9:53 pm 21:53 Clear 43 6.1 35 1.7 74 74 Calm 30.32 1027 9 14 0.00 0.00
10:04 pm 22:04 Hazy 41 5 34 1 76 76 Calm 30.33 1027 2 3 0.00 0.00
10:10 pm 22:10 Hazy 43 6 34 1 71 71 VRB 3 6 30.33 1027 3 5 0.00 0.00
10:53 pm 22:53 Hazy 41 5 34 1.1 76 76 Calm 30.32 1027 6 10 0.00 0.00
11:53 pm 23:53 Clear 40 4.4 33 0.6 77 77 Calm 30.33 1027 10 16 0.00 0.00

Powered by AerisWeather